• Processing (Info)

  • MPEC 2001-F15 : 2001 CV26

    The following Minor Planet Electronic Circular may be linked-to from your own Web pages, but must not otherwise be redistributed electronically.

    A form allowing access to any MPEC is at the bottom of this page.


    Read MPEC 2001-F14 Read MPEC 2001-F16


    M.P.E.C. 2001-F15                                Issued 2001 Mar. 19, 21:04 UT
    
         The Minor Planet Electronic Circulars contain information on unusual
             minor planets and routine data on comets.  They are published
       on behalf of Commission 20 of the International Astronomical Union by the
              Minor Planet Center, Smithsonian Astrophysical Observatory,
                              Cambridge, MA 02138, U.S.A.
    
                 Prepared using the Tamkin Foundation Computer Network
    
                                  MPC@CFA.HARVARD.EDU
              URL http://cfa-www.harvard.edu/iau/mpc.html  ISSN 1523-6714
    
                                       2001 CV26
    
    Additional Observations:
         K01C26V  C2001 03 18.38068 15 23 41.40 -20 36 32.6          18.3        704
         K01C26V  C2001 03 18.39405 15 23 40.57 -20 36 45.0          18.9        704
         K01C26V  C2001 03 18.40755 15 23 39.84 -20 36 58.2          18.8        704
         K01C26V  C2001 03 18.42100 15 23 39.17 -20 37 11.5          19.0        704
         K01C26V  C2001 03 18.43437 15 23 38.33 -20 37 24.6          19.1        704
         K01C26V  C2001 03 19.41241 15 22 45.80 -20 53 21.2                      670
         K01C26V  C2001 03 19.45728 15 22 43.08 -20 54 04.6                      670
    
    Observer details:
    670 Camarillo.  Observer J. E. Rogers.  0.30-m f/6.7 Helin Telescope + CCD.
    704 Lincoln Laboratory ETS, New Mexico.  Observers M. Blythe, F. Shelly,
        M. Bezpalko, R. Huber, L. Manguso, S. Adams.  Measurers J. Stuart,
        R. Sayer, J. B. Evans, H. Viggh.  1.0-m f/2.15 reflector + CCD.
    
    Orbital elements:
    2001 CV26                                                            PHA 0.032A
    Epoch 2001 Apr. 1.0 TT = JDT 2452000.5                  Spahr
    M 111.48799              (2000.0)            P               Q
    n   0.65048836     Peri.   48.50815     +0.40564964     -0.90889444
    a   1.3191971      Node    18.27622     +0.71944572     +0.25221496
    e   0.3270431      Incl.   17.96851     +0.56377852     +0.33211220
    P   1.52           H   16.2           G   0.15           U   7
    Residuals in seconds of arc
    010201 704  0.0   0.2-    010202 699  0.1+  0.0     010318 704  0.3-  0.2+
    010201 704  0.1+  0.7+    010202 699  0.3+  0.1-    010318 704  0.9+  0.1+
    010201 704  0.2-  0.1+    010202 699  0.7-  0.0     010318 704  0.3-  0.1+
    010201 704  0.5+  0.8-    010318 704  0.5+  0.7-    010319 670  0.1-  0.2-
    010202 699  0.1-  0.3+    010318 704  0.6-  0.1+    010319 670  0.1-  0.5+
    
    Ephemeris:
    2001 CV26                a,e,i = 1.32, 0.33, 18                  q = 0.8878
    Date    TT    R. A. (2000) Decl.     Delta      r     Elong.  Phase     V
    2001 03 12    15 27.73   -18 52.2    0.763    1.504   117.2    36.0    18.0
    2001 03 22    15 20.09   -21 35.2    0.712    1.542   128.1    30.6    17.7
    2001 04 01    15 04.95   -24 11.0    0.672    1.576   140.3    23.9    17.4
    2001 04 11    14 42.65   -26 22.7    0.649    1.607   153.0    16.4    17.2
    2001 04 21    14 15.56   -27 50.0    0.648    1.636   163.3    10.2    17.0
    2001 05 01    13 48.12   -28 22.8    0.671    1.661   163.1    10.2    17.1
    2001 05 11    13 24.87   -28 11.9    0.718    1.683   153.4    15.6    17.5
    2001 05 21    13 08.34   -27 39.3    0.786    1.702   142.2    21.4    17.9
    2001 05 31    12 58.95   -27 05.8    0.868    1.718   131.6    26.2    18.3
    2001 06 10    12 55.87   -26 44.0    0.962    1.731   122.2    29.8    18.6
    2001 06 20    12 57.92   -26 38.4    1.062    1.740   113.7    32.3    18.9
    2001 06 30    13 04.08   -26 49.6    1.166    1.747   106.1    34.0    19.2
    2001 07 10    13 13.50   -27 16.2    1.271    1.750    99.2    35.0    19.4
    2001 07 20    13 25.57   -27 55.3    1.375    1.750    92.9    35.4    19.6
    2001 07 30    13 39.89   -28 44.6    1.476    1.747    87.0    35.5    19.7
    2001 08 09    13 56.16   -29 41.3    1.574    1.741    81.5    35.2    19.8
    2001 08 19    14 14.19   -30 42.6    1.666    1.732    76.2    34.6    19.9
    2001 08 29    14 33.89   -31 46.0    1.753    1.719    71.3    33.8    20.0
    2001 09 08    14 55.19   -32 48.8    1.832    1.703    66.5    32.9    20.1
    
    Timothy B. Spahr             (C) Copyright 2001 MPC           M.P.E.C. 2001-F15
    

    Read MPEC 2001-F14 Read MPEC 2001-F16


    MPEC number:

    Enter an MPEC number in one of the following forms:

    • 1997-B01 (the full form)
    • J97B01 (the packed version of the full form)
    • B01 (the abbreviated form)